Flag for Canada Weather for the Past 2 Weeks in Happy Valley-Goose Bay, Newfoundland and Labrador, Canada

Now
34 °F

Overcast.


Feels Like: 31 °F
Forecast: 34 / 47 °F
Wind: 3 mph from West

Location: Goose

Current Time: May 1, 2016 at 5:20:59 AM

Latest Report: May 1, 2016 at 4:00 AM


Visibility: 15 mi

Pressure: 30.26 "Hg

Humidity: 75%

Dew Point: 27 °F

Location of Happy Valley-Goose BayLocation

Historic Weather in Happy Valley-Goose Bay — Graph

°F

Happy Valley-Goose Bay Temperature Yesterday

Maximum temperature yesterday: 43 °F (at 2:00 PM)
Minimum temperature yesterday: 34 °F (at 6:00 AM)
Average temperature yesterday: 38 °F

High & Low Weather Summary for the Past Weeks

 TemperatureHumidityPressure
High48 °F (Apr 16, 5:00 PM)87% (Apr 22, 9:47 AM)30.65 "Hg (Apr 22, 9:47 AM)
Low5 °F (Apr 27, 5:00 AM)23% (Apr 16, 6:00 PM)29.44 "Hg (Apr 29, 1:54 PM)
Average30 °F65%29.92 "Hg
* Reported Apr 16 4:00 AM — May 1 4:00 AM, Happy Valley-Goose Bay, Weather by CustomWeather, © 2016

Note: Actual official high and low records may vary slightly from our data, if they occured in-between our weather recording intervals... More about our weather records

Advertising

Happy Valley-Goose Bay Weather History for the Previous 24 Hours

Scroll right to see more
 ConditionsComfort  
Time TempWeatherWind HumidityBarometerVisibility
4:00 AM
Sun, May 1
34 °FOvercast.3 mph75%30.26 "Hg15 mi
3:00 AM36 °FOvercast.No wind70%30.26 "Hg15 mi
2:00 AM36 °FOvercast.3 mph70%30.25 "Hg15 mi
1:00 AM36 °FOvercast.3 mph70%30.25 "Hg15 mi
12:00 AM36 °FOvercast.No wind75%30.25 "Hg15 mi
11:00 PM
Sat, Apr 30
36 °FOvercast.No wind75%30.23 "Hg15 mi
10:00 PM36 °FMostly cloudy.8 mph70%30.22 "Hg15 mi
9:00 PM37 °FMostly cloudy.5 mph65%30.21 "Hg15 mi
8:00 PM37 °FMostly cloudy.7 mph65%30.19 "Hg15 mi
7:00 PM39 °FPartly sunny.9 mph61%30.16 "Hg15 mi
6:00 PM41 °FPartly sunny.9 mph61%30.14 "Hg15 mi
5:00 PM41 °FPartly sunny.8 mph61%30.12 "Hg15 mi
4:00 PM41 °FPartly sunny.8 mph61%30.11 "Hg15 mi
3:00 PM41 °FPartly sunny.9 mph61%30.09 "Hg15 mi
2:00 PM43 °FPartly sunny.5 mph57%30.09 "Hg15 mi
1:00 PM41 °FPartly sunny.5 mph61%30.09 "Hg15 mi
12:00 PM39 °FMore clouds than sun.12 mph65%30.09 "Hg15 mi
11:00 AM37 °FPartly sunny.12 mph65%30.08 "Hg15 mi
10:00 AM37 °FPartly sunny.12 mph65%30.05 "Hg15 mi
9:00 AM36 °FBroken clouds.12 mph70%30.02 "Hg15 mi
8:00 AM36 °FPartly sunny.8 mph70%29.98 "Hg15 mi
7:00 AM36 °FPartly sunny.10 mph70%29.95 "Hg15 mi
6:00 AM34 °FMostly cloudy.13 mph81%29.91 "Hg15 mi
5:00 AM36 °FMostly cloudy.21 mph75%29.87 "Hg15 mi
Weather by CustomWeather, © 2016

See weather overviewHow to use our weather pages